Naval Air Station Jrb Fort Worth, TX

12:55 PM CDT on September 28, 2016 (GMT -0500)
Fort Worth Naval Air Station Jrb

Weather History for KNFW - May, 2013

Change the Weather History Date:

Wednesday, May 29, 2013

  Actual Average Record
Temperature  
Mean Temperature 80 °F -  
Max Temperature 86 °F 86 °F 98 °F (1998)
Min Temperature 75 °F 67 °F 62 °F (1997)
Cooling Degree Days 16    
Growing Degree Days 30 (Base 50)    
Moisture  
Dew Point 66 °F    
Average Humidity 67    
Maximum Humidity 83    
Minimum Humidity 53    
Precipitation  
Precipitation 0.07 in - - ()
Sea Level Pressure  
Sea Level Pressure 29.76 in    
Wind  
Wind Speed 19 mph (SSE)    
Max Wind Speed 30 mph    
Max Gust Speed 44 mph    
Visibility 10 miles    
Events Rain , Thunderstorm    
Averages and records for this station are not official NWS values.
T = Trace of Precipitation, MM = Missing Value Source: NWS Daily Summary

Daily Weather History Graph

Daily Weather History Graph

Search for Another Location

Airport or City:

Trip Planner

Search our weather history database for the weather conditions in past years. The results will help you decide how hot, cold, wet, or windy it might be!

Date:

Astronomy

May. 29, 2013 Rise Set
Actual Time 6:23 AM CDT 8:31 PM CDT
Civil Twilight 5:55 AM CDT 8:59 PM CDT
Nautical Twilight 5:21 AM CDT 9:33 PM CDT
Astronomical Twilight 4:44 AM CDT 10:10 PM CDT
Moon 12:02 AM CDT (5/29) 11:15 AM CDT (5/29)
Length of Visible Light 15h 03m
Length of Day
14h 07m
Waning Gibbous, 73% of the Moon is Illuminated
May 29
Waning Gibbous
May 31
Last Quarter
Jun 8
New
Jun 16
First Quarter
Jun 23
Full

Hourly Weather History & Observations

Time (CDT) Temp. Heat Index Dew Point Humidity Pressure Visibility Wind Dir Wind Speed Gust Speed Precip Events Conditions
12:52 AM 79.0 °F - 66.9 °F 66% 29.77 in 10.0 mi South 19.6 mph 33.4 mph N/A   Scattered Clouds
12:59 AM 78.8 °F - 66.2 °F 65% 29.81 in 10.0 mi South 19.6 mph 29.9 mph N/A   Mostly Cloudy
1:10 AM 78.8 °F - 66.2 °F 65% 29.81 in 10.0 mi South 20.7 mph 31.1 mph N/A   Mostly Cloudy
1:24 AM 78.8 °F - 66.2 °F 65% 29.81 in 10.0 mi South 23.0 mph 29.9 mph N/A   Mostly Cloudy
1:41 AM 78.8 °F - 66.2 °F 65% 29.82 in 10.0 mi South 18.4 mph 27.6 mph N/A   Scattered Clouds
1:52 AM 78.1 °F - 64.9 °F 64% 29.77 in 10.0 mi South 18.4 mph 29.9 mph N/A   Partly Cloudy
2:52 AM 77.0 °F - 64.9 °F 66% 29.77 in 10.0 mi SSE 21.9 mph 27.6 mph N/A   Clear
3:52 AM 77.0 °F - 64.9 °F 66% 29.70 in 10.0 mi SSE 29.9 mph 43.7 mph N/A   Partly Cloudy
4:52 AM 77.0 °F - 64.0 °F 64% 29.71 in 10.0 mi SSE 26.5 mph 40.3 mph N/A   Partly Cloudy
5:52 AM 75.9 °F - 64.0 °F 67% 29.74 in 10.0 mi South 20.7 mph 27.6 mph N/A   Scattered Clouds
6:02 AM 75.2 °F - 64.4 °F 69% 29.80 in 10.0 mi SSE 18.4 mph 25.3 mph N/A   Mostly Cloudy
6:04 AM 75.2 °F - 64.4 °F 69% 29.82 in 10.0 mi South 18.4 mph 24.2 mph N/A   Overcast
6:52 AM 75.9 °F - 64.9 °F 69% 29.78 in 10.0 mi SSE 19.6 mph 27.6 mph N/A   Overcast
7:52 AM 77.0 °F - 64.9 °F 66% 29.78 in 10.0 mi SSE 18.4 mph 26.5 mph N/A   Overcast
8:52 AM 77.0 °F - 66.0 °F 69% 29.79 in 10.0 mi SSE 13.8 mph - N/A   Overcast
9:52 AM 78.1 °F - 66.0 °F 66% 29.79 in 10.0 mi SE 13.8 mph - N/A   Overcast
10:47 AM 78.8 °F - 66.2 °F 65% 29.83 in 10.0 mi SSE 16.1 mph 23.0 mph N/A   Overcast
10:52 AM 79.0 °F - 66.9 °F 66% 29.79 in 10.0 mi SSE 13.8 mph 21.9 mph N/A   Overcast
11:52 AM 80.1 °F 82.3 °F 66.9 °F 64% 29.79 in 10.0 mi SSE 18.4 mph - N/A   Overcast
12:52 PM 81.0 °F 83.3 °F 66.9 °F 62% 29.79 in 10.0 mi SSE 21.9 mph 31.1 mph N/A   Overcast
1:52 PM 82.0 °F 84.5 °F 66.9 °F 60% 29.78 in 10.0 mi South 18.4 mph 29.9 mph N/A   Overcast
3:52 PM 84.9 °F 87.6 °F 66.9 °F 55% 29.73 in 10.0 mi SSE 18.4 mph 32.2 mph N/A   Overcast
4:52 PM 86.0 °F 88.8 °F 66.9 °F 53% 29.70 in 10.0 mi SSE 17.3 mph 31.1 mph N/A   Overcast
5:52 PM 84.0 °F 87.0 °F 68.0 °F 58% 29.66 in 10.0 mi SE 17.3 mph 25.3 mph N/A Thunderstorm Thunderstorm
6:14 PM 80.6 °F 81.8 °F 62.6 °F 54% 29.73 in 10.0 mi SE 25.3 mph 36.8 mph 0.00 in Thunderstorm Thunderstorm
6:52 PM 77.0 °F - 66.0 °F 69% 29.70 in 10.0 mi SE 21.9 mph 28.8 mph 0.00 in Thunderstorm Thunderstorm
7:52 PM 75.0 °F - 69.1 °F 82% 29.72 in 10.0 mi SE 12.7 mph - 0.01 in Rain , Thunderstorm Light Thunderstorms and Rain
8:52 PM 75.9 °F - 70.0 °F 82% 29.71 in 10.0 mi SE 11.5 mph - 0.04 in Thunderstorm Thunderstorm
9:14 PM 75.2 °F - 69.8 °F 83% 29.74 in 10.0 mi SE 17.3 mph - 0.02 in Rain Light Rain
9:52 PM 77.0 °F - 69.1 °F 76% 29.72 in 10.0 mi SSE 17.3 mph 21.9 mph 0.02 in Rain Light Rain
10:52 PM 77.0 °F - 69.1 °F 76% 29.73 in 10.0 mi SSE 18.4 mph 25.3 mph 0.00 in   Partly Cloudy
11:52 PM 77.0 °F - 66.9 °F 71% 29.75 in 10.0 mi SSE 17.3 mph 24.2 mph N/A   Clear